| time (UTC) | temp F | wind direction | speed MPH | gust MPH | rain 1hr in | rain 24hr in | rain mn in | humidity % | barometer mb |
| 20260904040152 | 56 | 132 | 0.0 | 0.0 | 0.00 | 0.00 | 0.00 | 62 | 1005.6 |
| 20260904035647 | 56 | 114 | 0.0 | 0.0 | 0.00 | 0.00 | 0.00 | 60 | 1005.9 |
| 20260904035142 | 57 | 120 | 0.0 | 0.0 | 0.00 | 0.00 | 0.00 | 59 | 1005.8 |
| 20260904034641 | 56 | 6 | 4.0 | 5.0 | 0.00 | 0.00 | 0.00 | 58 | 1005.8 |
| 20260904034137 | 56 | 133 | 0.0 | 0.0 | 0.00 | 0.00 | 0.00 | 61 | 1005.5 |
| 20260904033633 | 55 | 133 | 0.0 | 1.0 | 0.00 | 0.00 | 0.00 | 61 | 1005.6 |
| 20260904033130 | 55 | 130 | 0.0 | 1.0 | 0.00 | 0.00 | 0.00 | 62 | 1005.7 |
| 20260904032626 | 55 | 108 | 1.0 | 1.0 | 0.00 | 0.00 | 0.00 | 62 | 1005.8 |
| 20260904032124 | 56 | 127 | 1.0 | 1.0 | 0.00 | 0.00 | 0.00 | 63 | 1005.9 |
| 20260904031624 | 57 | 130 | 0.0 | 0.0 | 0.00 | 0.00 | 0.00 | 60 | 1005.6 |
| 20260904031120 | 57 | 116 | 1.0 | 1.0 | 0.00 | 0.00 | 0.00 | 59 | 1005.8 |
| 20260904030616 | 58 | 92 | 3.0 | 3.0 | 0.00 | 0.00 | 0.00 | 57 | 1005.8 |
| 20260904030111 | 58 | 62 | 3.0 | 3.0 | 0.00 | 0.00 | 0.00 | 57 | 1005.6 |
| 20260904025607 | 59 | 126 | 0.0 | 1.0 | 0.00 | 0.00 | 0.00 | 56 | 1005.6 |
| 20260904025101 | 59 | 125 | 0.0 | 0.0 | 0.00 | 0.00 | 0.00 | 54 | 1005.4 |
| 20260904024557 | 60 | 99 | 2.0 | 2.0 | 0.00 | 0.00 | 0.00 | 54 | 1005.6 |
| 20260904024053 | 60 | 126 | 0.0 | 0.0 | 0.00 | 0.00 | 0.00 | 54 | 1005.5 |
| 20260904023549 | 61 | 110 | 0.0 | 1.0 | 0.00 | 0.00 | 0.00 | 52 | 1005.4 |
| 20260904023044 | 61 | 127 | 2.0 | 3.0 | 0.00 | 0.00 | 0.00 | 52 | 1005.2 |
| 20260904022539 | 62 | 134 | 0.0 | 0.0 | 0.00 | 0.00 | 0.00 | 52 | 1004.9 |
| 20260904022036 | 63 | 130 | 2.0 | 2.0 | 0.00 | 0.00 | 0.00 | 49 | 1005.1 |
| 20260904021531 | 64 | 49 | 6.0 | 7.0 | 0.00 | 0.00 | 0.00 | 46 | 1005.1 |
| 20260904021026 | 64 | 109 | 4.0 | 5.0 | 0.00 | 0.00 | 0.00 | 47 | 1005.3 |
| 20260904020526 | 64 | 81 | 4.0 | 5.0 | 0.00 | 0.00 | 0.00 | 47 | 1005.1 |
| 20260904020021 | 64 | 133 | 3.0 | 3.0 | 0.00 | 0.00 | 0.00 | 47 | 1004.9 |
| 20260904015515 | 65 | 47 | 3.0 | 3.0 | 0.00 | 0.00 | 0.00 | 47 | 1004.8 |
| 20260904015014 | 65 | 113 | 1.0 | 2.0 | 0.00 | 0.00 | 0.00 | 46 | 1004.7 |
| 20260904014509 | 66 | 132 | 0.0 | 0.0 | 0.00 | 0.00 | 0.00 | 45 | 1004.7 |
| 20260904014004 | 67 | 131 | 0.0 | 0.0 | 0.00 | 0.00 | 0.00 | 44 | 1004.6 |
| 20260904013501 | 68 | 129 | 0.0 | 0.0 | 0.00 | 0.00 | 0.00 | 43 | 1004.7 |
| 20260904012957 | 69 | 135 | 0.0 | 0.0 | 0.00 | 0.00 | 0.00 | 42 | 1004.6 |
| 20260904012456 | 70 | 146 | 1.0 | 1.0 | 0.00 | 0.00 | 0.00 | 40 | 1004.7 |
| 20260904011950 | 71 | 139 | 0.0 | 1.0 | 0.00 | 0.00 | 0.00 | 39 | 1004.5 |
| 20260904011445 | 71 | 130 | 0.0 | 0.0 | 0.00 | 0.00 | 0.00 | 39 | 1004.6 |
| 20260904010941 | 72 | 138 | 1.0 | 1.0 | 0.00 | 0.00 | 0.00 | 38 | 1004.6 |
| 20260904010437 | 72 | 143 | 3.0 | 6.0 | 0.00 | 0.00 | 0.00 | 37 | 1004.6 |
| 20260904005932 | 72 | 131 | 3.0 | 6.0 | 0.00 | 0.00 | 0.00 | 37 | 1004.7 |
| 20260904005428 | 72 | 145 | 1.0 | 2.0 | 0.00 | 0.00 | 0.00 | 36 | 1004.7 |
| 20260904004928 | 73 | 344 | 3.0 | 5.0 | 0.00 | 0.00 | 0.00 | 36 | 1004.6 |
| 20260904004424 | 73 | 66 | 4.0 | 7.0 | 0.00 | 0.00 | 0.00 | 36 | 1004.5 |
| 20260904003919 | 73 | 303 | 6.0 | 9.0 | 0.00 | 0.00 | 0.00 | 36 | 1004.7 |
| 20260904003414 | 74 | 82 | 3.0 | 5.0 | 0.00 | 0.00 | 0.00 | 36 | 1004.5 |
| 20260904002909 | 74 | 220 | 2.0 | 2.0 | 0.00 | 0.00 | 0.00 | 36 | 1004.7 |
| 20260904002406 | 74 | 136 | 2.0 | 2.0 | 0.00 | 0.00 | 0.00 | 36 | 1004.6 |
| 20260904001904 | 74 | 309 | 8.0 | 15.0 | 0.00 | 0.00 | 0.00 | 35 | 1004.7 |
| 20260904001400 | 75 | 299 | 5.0 | 11.0 | 0.00 | 0.00 | 0.00 | 35 | 1004.6 |
| 20260904000855 | 75 | 316 | 8.0 | 10.0 | 0.00 | 0.00 | 0.00 | 34 | 1004.6 |
| 20260904000355 | 75 | 306 | 13.0 | 15.0 | 0.00 | 0.00 | 0.00 | 34 | 1004.3 |
| 20260903235849 | 75 | 286 | 7.0 | 9.0 | 0.00 | 0.00 | 0.00 | 35 | 1004.2 |
| 20260903235345 | 75 | 321 | 7.0 | 8.0 | 0.00 | 0.00 | 0.00 | 34 | 1004.3 |
| 20260903234844 | 75 | 248 | 10.0 | 11.0 | 0.00 | 0.00 | 0.00 | 34 | 1004.4 |
| 20260903234340 | 75 | 91 | 3.0 | 5.0 | 0.00 | 0.00 | 0.00 | 35 | 1004.4 |
| 20260903233836 | 75 | 295 | 10.0 | 11.0 | 0.00 | 0.00 | 0.00 | 34 | 1004.3 |
| 20260903233332 | 75 | 328 | 7.0 | 9.0 | 0.00 | 0.00 | 0.00 | 34 | 1004.0 |
| 20260903232831 | 75 | 301 | 9.0 | 9.0 | 0.00 | 0.00 | 0.00 | 34 | 1004.1 |
| 20260903232327 | 76 | 326 | 6.0 | 7.0 | 0.00 | 0.00 | 0.00 | 35 | 1004.0 |
| 20260903231826 | 76 | 143 | 6.0 | 8.0 | 0.00 | 0.00 | 0.00 | 35 | 1004.0 |
| 20260903231322 | 76 | 292 | 11.0 | 13.0 | 0.00 | 0.00 | 0.00 | 34 | 1004.1 |
| 20260903230817 | 76 | 275 | 12.0 | 14.0 | 0.00 | 0.00 | 0.00 | 34 | 1004.1 |
| 20260903230312 | 76 | 308 | 7.0 | 8.0 | 0.00 | 0.00 | 0.00 | 34 | 1003.7 |
| 20260903225808 | 77 | 328 | 10.0 | 11.0 | 0.00 | 0.00 | 0.00 | 34 | 1004.1 |
| 20260903225306 | 77 | 268 | 12.0 | 15.0 | 0.00 | 0.00 | 0.00 | 31 | 1004.1 |
| 20260903224801 | 77 | 244 | 7.0 | 8.0 | 0.00 | 0.00 | 0.00 | 30 | 1004.0 |
| 20260903224256 | 77 | 262 | 13.0 | 15.0 | 0.00 | 0.00 | 0.00 | 30 | 1004.0 |
| 20260903223751 | 77 | 283 | 10.0 | 14.0 | 0.00 | 0.00 | 0.00 | 32 | 1004.1 |
| 20260903223250 | 77 | 276 | 9.0 | 10.0 | 0.00 | 0.00 | 0.00 | 32 | 1003.9 |
| 20260903222745 | 77 | 223 | 6.0 | 7.0 | 0.00 | 0.00 | 0.00 | 32 | 1003.6 |
| 20260903222244 | 77 | 266 | 8.0 | 9.0 | 0.00 | 0.00 | 0.00 | 31 | 1003.9 |
| 20260903221739 | 77 | 229 | 11.0 | 15.0 | 0.00 | 0.00 | 0.00 | 31 | 1003.6 |
| 20260903221238 | 77 | 231 | 15.0 | 18.0 | 0.00 | 0.00 | 0.00 | 31 | 1003.6 |
| 20260903220736 | 76 | 258 | 9.0 | 10.0 | 0.00 | 0.00 | 0.00 | 32 | 1003.5 |
| 20260903220231 | 76 | 254 | 8.0 | 10.0 | 0.00 | 0.00 | 0.00 | 32 | 1003.5 |
| 20260903215730 | 76 | 235 | 7.0 | 8.0 | 0.00 | 0.00 | 0.00 | 32 | 1003.5 |
| 20260903215226 | 77 | 230 | 18.0 | 22.0 | 0.00 | 0.00 | 0.00 | 31 | 1003.9 |
| 20260903214724 | 77 | 243 | 9.0 | 10.0 | 0.00 | 0.00 | 0.00 | 31 | 1003.4 |
| 20260903214220 | 77 | 268 | 10.0 | 14.0 | 0.00 | 0.00 | 0.00 | 32 | 1003.6 |
| 20260903213714 | 76 | 239 | 11.0 | 13.0 | 0.00 | 0.00 | 0.00 | 31 | 1003.3 |
| 20260903213210 | 77 | 214 | 10.0 | 11.0 | 0.00 | 0.00 | 0.00 | 31 | 1003.2 |
| 20260903212706 | 76 | 211 | 9.0 | 13.0 | 0.00 | 0.00 | 0.00 | 32 | 1003.3 |
| 20260903212202 | 76 | 253 | 12.0 | 14.0 | 0.00 | 0.00 | 0.00 | 32 | 1003.3 |
| 20260903211655 | 77 | 221 | 14.0 | 16.0 | 0.00 | 0.00 | 0.00 | 31 | 1003.2 |
| 20260903211153 | 77 | 288 | 12.0 | 15.0 | 0.00 | 0.00 | 0.00 | 31 | 1003.4 |
| 20260903210648 | 77 | 213 | 5.0 | 6.0 | 0.00 | 0.00 | 0.00 | 32 | 1003.6 |
| 20260903210143 | 75 | 260 | 9.0 | 11.0 | 0.00 | 0.00 | 0.00 | 32 | 1003.4 |
| 20260903205637 | 76 | 243 | 11.0 | 14.0 | 0.00 | 0.00 | 0.00 | 32 | 1003.4 |
| 20260903205136 | 76 | 259 | 11.0 | 14.0 | 0.00 | 0.00 | 0.00 | 32 | 1003.1 |
| 20260903204632 | 76 | 197 | 7.0 | 11.0 | 0.00 | 0.00 | 0.00 | 32 | 1003.2 |
| 20260903204128 | 77 | 209 | 11.0 | 13.0 | 0.00 | 0.00 | 0.00 | 32 | 1003.4 |
| 20260903203623 | 77 | 286 | 10.0 | 13.0 | 0.00 | 0.00 | 0.00 | 33 | 1003.2 |
| 20260903203118 | 76 | 212 | 8.0 | 11.0 | 0.00 | 0.00 | 0.00 | 34 | 1003.2 |
| 20260903202613 | 76 | 240 | 6.0 | 8.0 | 0.00 | 0.00 | 0.00 | 33 | 1003.3 |
| 20260903202108 | 76 | 238 | 8.0 | 13.0 | 0.00 | 0.00 | 0.00 | 33 | 1003.4 |
| 20260903201557 | 76 | 214 | 11.0 | 14.0 | 0.00 | 0.00 | 0.00 | 32 | 1003.4 |
| 20260903201056 | 76 | 220 | 9.0 | 13.0 | 0.00 | 0.00 | 0.00 | 33 | 1003.5 |
| 20260903200551 | 75 | 241 | 11.0 | 13.0 | 0.00 | 0.00 | 0.00 | 32 | 1003.2 |
| 20260903200046 | 75 | 205 | 6.0 | 7.0 | 0.00 | 0.00 | 0.00 | 34 | 1003.4 |
| 20260903195543 | 75 | 193 | 7.0 | 9.0 | 0.00 | 0.00 | 0.00 | 34 | 1003.7 |
| 20260903195038 | 75 | 228 | 10.0 | 11.0 | 0.00 | 0.00 | 0.00 | 34 | 1003.5 |
| 20260903194533 | 75 | 254 | 10.0 | 15.0 | 0.00 | 0.00 | 0.00 | 35 | 1003.9 |
| 20260903194028 | 75 | 199 | 6.0 | 7.0 | 0.00 | 0.00 | 0.00 | 34 | 1003.5 |
| 20260903193524 | 74 | 184 | 7.0 | 9.0 | 0.00 | 0.00 | 0.00 | 34 | 1003.5 |
| 20260903193014 | 74 | 197 | 8.0 | 10.0 | 0.00 | 0.00 | 0.00 | 35 | 1003.4 |
| 20260903192511 | 75 | 240 | 9.0 | 10.0 | 0.00 | 0.00 | 0.00 | 34 | 1003.4 |
| 20260903192010 | 75 | 216 | 8.0 | 11.0 | 0.00 | 0.00 | 0.00 | 34 | 1003.2 |
| 20260903191507 | 74 | 198 | 5.0 | 7.0 | 0.00 | 0.00 | 0.00 | 36 | 1003.4 |
| 20260903191001 | 75 | 203 | 5.0 | 6.0 | 0.00 | 0.00 | 0.00 | 35 | 1003.5 |
| 20260903190501 | 75 | 250 | 7.0 | 9.0 | 0.00 | 0.00 | 0.00 | 35 | 1003.5 |
| 20260903185954 | 74 | 211 | 4.0 | 7.0 | 0.00 | 0.00 | 0.00 | 36 | 1003.5 |
| 20260903185450 | 74 | 236 | 11.0 | 15.0 | 0.00 | 0.00 | 0.00 | 36 | 1003.6 |
| 20260903184944 | 73 | 211 | 9.0 | 10.0 | 0.00 | 0.00 | 0.00 | 36 | 1003.6 |
| 20260903184442 | 73 | 217 | 7.0 | 9.0 | 0.00 | 0.00 | 0.00 | 35 | 1003.4 |
| 20260903183942 | 73 | 209 | 9.0 | 13.0 | 0.00 | 0.00 | 0.00 | 35 | 1003.6 |
| 20260903183436 | 73 | 236 | 9.0 | 9.0 | 0.00 | 0.00 | 0.00 | 35 | 1003.6 |
| 20260903182935 | 73 | 245 | 7.0 | 10.0 | 0.00 | 0.00 | 0.00 | 35 | 1003.6 |
| 20260903182434 | 73 | 251 | 15.0 | 20.0 | 0.00 | 0.00 | 0.00 | 35 | 1003.9 |
| 20260903181930 | 73 | 231 | 10.0 | 11.0 | 0.00 | 0.00 | 0.00 | 36 | 1003.5 |
| 20260903181425 | 73 | 253 | 11.0 | 14.0 | 0.00 | 0.00 | 0.00 | 36 | 1003.9 |
| 20260903180924 | 73 | 235 | 12.0 | 14.0 | 0.00 | 0.00 | 0.00 | 36 | 1003.7 |
| 20260903180419 | 73 | 265 | 12.0 | 15.0 | 0.00 | 0.00 | 0.00 | 37 | 1003.4 |
| 20260903175918 | 72 | 231 | 8.0 | 9.0 | 0.00 | 0.00 | 0.00 | 37 | 1003.7 |
| 20260903175413 | 72 | 227 | 8.0 | 9.0 | 0.00 | 0.00 | 0.00 | 37 | 1003.7 |
| 20260903174907 | 72 | 209 | 16.0 | 18.0 | 0.00 | 0.00 | 0.00 | 36 | 1003.7 |
| 20260903174402 | 72 | 251 | 12.0 | 15.0 | 0.00 | 0.00 | 0.00 | 37 | 1003.6 |
| 20260903173857 | 72 | 215 | 9.0 | 11.0 | 0.00 | 0.00 | 0.00 | 38 | 1003.7 |
| 20260903173352 | 72 | 228 | 11.0 | 13.0 | 0.00 | 0.00 | 0.00 | 38 | 1003.7 |
| 20260903172848 | 72 | 262 | 11.0 | 13.0 | 0.00 | 0.00 | 0.00 | 38 | 1003.5 |
| 20260903172342 | 71 | 236 | 6.0 | 8.0 | 0.00 | 0.00 | 0.00 | 39 | 1003.5 |
| 20260903171838 | 71 | 252 | 14.0 | 17.0 | 0.00 | 0.00 | 0.00 | 39 | 1003.9 |
| 20260903171333 | 71 | 234 | 7.0 | 8.0 | 0.00 | 0.00 | 0.00 | 39 | 1003.7 |
| 20260903170832 | 70 | 217 | 9.0 | 13.0 | 0.00 | 0.00 | 0.00 | 40 | 1004.2 |
| 20260903170327 | 69 | 263 | 5.0 | 7.0 | 0.00 | 0.00 | 0.00 | 45 | 1004.0 |
| 20260903165825 | 69 | 319 | 4.0 | 5.0 | 0.00 | 0.00 | 0.00 | 47 | 1003.5 |
| 20260903165325 | 69 | 223 | 5.0 | 6.0 | 0.00 | 0.00 | 0.00 | 46 | 1003.9 |
| 20260903164820 | 69 | 156 | 2.0 | 3.0 | 0.00 | 0.00 | 0.00 | 50 | 1004.0 |
| 20260903164315 | 68 | 142 | 1.0 | 1.0 | 0.00 | 0.00 | 0.00 | 50 | 1004.1 |
| 20260903163814 | 67 | 115 | 1.0 | 2.0 | 0.00 | 0.00 | 0.00 | 50 | 1003.7 |
| 20260903163312 | 66 | 241 | 3.0 | 3.0 | 0.00 | 0.00 | 0.00 | 55 | 1004.1 |
| 20260903162807 | 65 | 317 | 5.0 | 6.0 | 0.00 | 0.00 | 0.00 | 54 | 1003.9 |
| 20260903162306 | 65 | 122 | 2.0 | 3.0 | 0.00 | 0.00 | 0.00 | 55 | 1004.0 |
| 20260903161759 | 66 | 152 | 2.0 | 2.0 | 0.00 | 0.00 | 0.00 | 53 | 1004.0 |
| 20260903161254 | 66 | 122 | 0.0 | 1.0 | 0.00 | 0.00 | 0.00 | 55 | 1004.0 |
| 20260903160749 | 64 | 135 | 0.0 | 1.0 | 0.00 | 0.00 | 0.00 | 56 | 1004.1 |
| 20260903160248 | 64 | 197 | 3.0 | 5.0 | 0.00 | 0.00 | 0.00 | 55 | 1004.0 |
| 20260903155747 | 63 | 136 | 0.0 | 1.0 | 0.00 | 0.00 | 0.00 | 61 | 1003.9 |
| 20260903155242 | 60 | 152 | 2.0 | 2.0 | 0.00 | 0.00 | 0.00 | 63 | 1004.0 |
| 20260903154738 | 59 | 105 | 0.0 | 1.0 | 0.00 | 0.00 | 0.00 | 69 | 1003.9 |
| 20260903154234 | 57 | 139 | 0.0 | 1.0 | 0.00 | 0.00 | 0.00 | 71 | 1004.2 |
| 20260903153729 | 57 | 127 | 0.0 | 0.0 | 0.00 | 0.00 | 0.00 | 73 | 1004.1 |
| 20260903153225 | 57 | 90 | 1.0 | 2.0 | 0.00 | 0.00 | 0.00 | 73 | 1004.0 |
| 20260903152721 | 57 | 31 | 3.0 | 5.0 | 0.00 | 0.00 | 0.00 | 74 | 1004.2 |
| 20260903152217 | 57 | 264 | 4.0 | 5.0 | 0.00 | 0.00 | 0.00 | 71 | 1004.3 |
| 20260903151716 | 57 | 249 | 3.0 | 3.0 | 0.00 | 0.00 | 0.00 | 70 | 1004.1 |
| 20260903151212 | 57 | 221 | 4.0 | 5.0 | 0.00 | 0.00 | 0.00 | 70 | 1004.1 |
| 20260903150707 | 56 | 210 | 3.0 | 3.0 | 0.00 | 0.00 | 0.00 | 72 | 1004.0 |
| 20260903150201 | 56 | 153 | 1.0 | 2.0 | 0.00 | 0.00 | 0.00 | 74 | 1004.0 |
| 20260903145656 | 55 | 143 | 1.0 | 1.0 | 0.00 | 0.00 | 0.00 | 75 | 1004.1 |
| 20260903145151 | 55 | 141 | 0.0 | 1.0 | 0.00 | 0.00 | 0.00 | 76 | 1004.1 |
| 20260903144650 | 54 | 192 | 2.0 | 2.0 | 0.00 | 0.00 | 0.00 | 77 | 1004.0 |
| 20260903144146 | 54 | 128 | 0.0 | 0.0 | 0.00 | 0.00 | 0.00 | 77 | 1004.0 |
| 20260903143642 | 53 | 134 | 2.0 | 2.0 | 0.00 | 0.00 | 0.00 | 76 | 1004.2 |
| 20260903143137 | 52 | 116 | 3.0 | 3.0 | 0.00 | 0.00 | 0.00 | 76 | 1004.0 |
| 20260903142633 | 52 | 147 | 3.0 | 3.0 | 0.00 | 0.00 | 0.00 | 80 | 1004.1 |
| 20260903142130 | 51 | 157 | 3.0 | 3.0 | 0.00 | 0.00 | 0.00 | 80 | 1004.1 |
| 20260903141625 | 50 | 164 | 2.0 | 3.0 | 0.00 | 0.00 | 0.00 | 82 | 1004.0 |
| 20260903141120 | 50 | 166 | 4.0 | 6.0 | 0.00 | 0.00 | 0.00 | 81 | 1004.0 |
| 20260903140616 | 50 | 139 | 1.0 | 1.0 | 0.00 | 0.00 | 0.00 | 83 | 1003.9 |
| 20260903140111 | 50 | 114 | 3.0 | 3.0 | 0.00 | 0.00 | 0.00 | 83 | 1003.7 |
| 20260903135607 | 50 | 139 | 3.0 | 3.0 | 0.00 | 0.00 | 0.00 | 82 | 1003.7 |
| 20260903135107 | 49 | 151 | 2.0 | 2.0 | 0.00 | 0.00 | 0.00 | 83 | 1003.7 |
| 20260903134605 | 50 | 145 | 3.0 | 3.0 | 0.00 | 0.00 | 0.00 | 82 | 1004.1 |
| 20260903134101 | 51 | 134 | 1.0 | 2.0 | 0.00 | 0.00 | 0.00 | 79 | 1003.9 |
| 20260903133559 | 52 | 168 | 3.0 | 3.0 | 0.00 | 0.00 | 0.00 | 77 | 1003.7 |
| 20260903133055 | 52 | 161 | 2.0 | 3.0 | 0.00 | 0.00 | 0.00 | 77 | 1003.5 |
| 20260903132550 | 52 | 190 | 4.0 | 6.0 | 0.00 | 0.00 | 0.00 | 76 | 1003.6 |
| 20260903132045 | 50 | 168 | 2.0 | 2.0 | 0.00 | 0.00 | 0.00 | 76 | 1003.6 |
| 20260903131544 | 48 | 150 | 3.0 | 3.0 | 0.00 | 0.00 | 0.00 | 81 | 1003.4 |
| 20260903131043 | 47 | 118 | 7.0 | 8.0 | 0.00 | 0.00 | 0.00 | 86 | 1003.5 |
| 20260903130538 | 48 | 126 | 2.0 | 2.0 | 0.00 | 0.00 | 0.00 | 85 | 1003.3 |
| 20260903130033 | 48 | 124 | 1.0 | 1.0 | 0.00 | 0.00 | 0.00 | 83 | 1003.3 |
| 20260903125531 | 49 | 132 | 0.0 | 0.0 | 0.00 | 0.00 | 0.00 | 82 | 1003.1 |
| 20260903125027 | 49 | 148 | 1.0 | 1.0 | 0.00 | 0.00 | 0.00 | 81 | 1003.1 |
| 20260903124526 | 48 | 170 | 2.0 | 2.0 | 0.00 | 0.00 | 0.00 | 81 | 1002.9 |
| 20260903124021 | 48 | 158 | 1.0 | 1.0 | 0.00 | 0.00 | 0.00 | 81 | 1002.9 |
| 20260903123521 | 48 | 168 | 2.0 | 2.0 | 0.00 | 0.00 | 0.00 | 82 | 1002.9 |
| 20260903123019 | 47 | 166 | 2.0 | 2.0 | 0.00 | 0.00 | 0.00 | 81 | 1002.5 |
| 20260903122513 | 45 | 175 | 2.0 | 2.0 | 0.00 | 0.00 | 0.00 | 87 | 1002.8 |
| 20260903122008 | 45 | 156 | 2.0 | 2.0 | 0.00 | 0.00 | 0.00 | 87 | 1003.1 |
| 20260903121503 | 44 | 137 | 3.0 | 3.0 | 0.00 | 0.00 | 0.00 | 89 | 1003.3 |
| 20260903120959 | 42 | 136 | 1.0 | 1.0 | 0.00 | 0.00 | 0.00 | 92 | 1003.0 |
| 20260903120457 | 43 | 145 | 1.0 | 1.0 | 0.00 | 0.00 | 0.00 | 90 | 1003.2 |
| 20260903115956 | 43 | 116 | 0.0 | 1.0 | 0.00 | 0.00 | 0.00 | 90 | 1002.9 |
| 20260903115456 | 43 | 133 | 0.0 | 0.0 | 0.00 | 0.00 | 0.00 | 89 | 1003.2 |
| 20260903114956 | 43 | 107 | 1.0 | 1.0 | 0.00 | 0.00 | 0.00 | 90 | 1003.1 |
| 20260903114451 | 43 | 134 | 1.0 | 1.0 | 0.00 | 0.00 | 0.00 | 91 | 1003.1 |
| 20260903113947 | 42 | 148 | 2.0 | 2.0 | 0.00 | 0.00 | 0.00 | 92 | 1003.0 |
| 20260903113442 | 42 | 134 | 0.0 | 0.0 | 0.00 | 0.00 | 0.00 | 92 | 1003.1 |
| 20260903112938 | 42 | 132 | 0.0 | 0.0 | 0.00 | 0.00 | 0.00 | 91 | 1003.0 |
| 20260903112434 | 42 | 31 | 3.0 | 5.0 | 0.00 | 0.00 | 0.00 | 91 | 1003.0 |
| 20260903111932 | 42 | 131 | 0.0 | 0.0 | 0.00 | 0.00 | 0.00 | 91 | 1003.1 |
| 20260903111427 | 42 | 134 | 0.0 | 0.0 | 0.00 | 0.00 | 0.00 | 91 | 1002.9 |
| 20260903110923 | 42 | 191 | 2.0 | 2.0 | 0.00 | 0.00 | 0.00 | 91 | 1002.8 |
| 20260903110419 | 42 | 121 | 1.0 | 1.0 | 0.00 | 0.00 | 0.00 | 91 | 1003.1 |
| 20260903105914 | 42 | 123 | 0.0 | 0.0 | 0.00 | 0.00 | 0.00 | 90 | 1003.0 |
| 20260903105409 | 43 | 127 | 0.0 | 0.0 | 0.00 | 0.00 | 0.00 | 90 | 1003.2 |
| 20260903104908 | 43 | 123 | 0.0 | 0.0 | 0.00 | 0.00 | 0.00 | 90 | 1003.1 |
| 20260903104403 | 44 | 122 | 0.0 | 0.0 | 0.00 | 0.00 | 0.00 | 90 | 1002.9 |
| 20260903103900 | 44 | 126 | 0.0 | 0.0 | 0.00 | 0.00 | 0.00 | 91 | 1002.9 |
| 20260903103355 | 43 | 112 | 1.0 | 1.0 | 0.00 | 0.00 | 0.00 | 91 | 1002.9 |
| 20260903102850 | 42 | 121 | 0.0 | 0.0 | 0.00 | 0.00 | 0.00 | 90 | 1003.0 |
| 20260903102344 | 43 | 125 | 0.0 | 0.0 | 0.00 | 0.00 | 0.00 | 89 | 1002.9 |
| 20260903101839 | 43 | 128 | 0.0 | 0.0 | 0.00 | 0.00 | 0.00 | 89 | 1002.8 |
| 20260903101334 | 43 | 127 | 0.0 | 0.0 | 0.00 | 0.00 | 0.00 | 88 | 1002.9 |
| 20260903100830 | 44 | 121 | 0.0 | 0.0 | 0.00 | 0.00 | 0.00 | 86 | 1003.1 |
| 20260903100330 | 46 | 117 | 0.0 | 1.0 | 0.00 | 0.00 | 0.00 | 85 | 1003.0 |
| 20260903095827 | 46 | 133 | 0.0 | 0.0 | 0.00 | 0.00 | 0.00 | 85 | 1002.8 |
| 20260903095321 | 45 | 144 | 1.0 | 1.0 | 0.00 | 0.00 | 0.00 | 86 | 1002.7 |
| 20260903094816 | 44 | 139 | 0.0 | 1.0 | 0.00 | 0.00 | 0.00 | 89 | 1002.7 |
| 20260903094311 | 44 | 125 | 0.0 | 0.0 | 0.00 | 0.00 | 0.00 | 89 | 1002.9 |
| 20260903093806 | 45 | 60 | 2.0 | 2.0 | 0.00 | 0.00 | 0.00 | 88 | 1002.8 |
| 20260903093256 | 44 | 99 | 1.0 | 2.0 | 0.00 | 0.00 | 0.00 | 90 | 1002.5 |
| 20260903092755 | 44 | 119 | 0.0 | 0.0 | 0.00 | 0.00 | 0.00 | 89 | 1002.5 |
| 20260903092245 | 44 | 123 | 0.0 | 0.0 | 0.00 | 0.00 | 0.00 | 88 | 1002.3 |
| 20260903091744 | 45 | 115 | 0.0 | 1.0 | 0.00 | 0.00 | 0.00 | 87 | 1002.4 |
| 20260903091238 | 46 | 138 | 0.0 | 0.0 | 0.00 | 0.00 | 0.00 | 86 | 1002.4 |
| 20260903090734 | 46 | 144 | 1.0 | 1.0 | 0.00 | 0.00 | 0.00 | 86 | 1002.5 |
| 20260903090233 | 46 | 132 | 0.0 | 0.0 | 0.00 | 0.00 | 0.00 | 87 | 1002.5 |
| 20260903085732 | 46 | 131 | 0.0 | 0.0 | 0.00 | 0.00 | 0.00 | 87 | 1002.4 |
| 20260903085227 | 46 | 131 | 0.0 | 0.0 | 0.00 | 0.00 | 0.00 | 87 | 1002.1 |
| 20260903084724 | 46 | 124 | 0.0 | 0.0 | 0.00 | 0.00 | 0.00 | 86 | 1002.3 |
| 20260903084220 | 46 | 122 | 0.0 | 0.0 | 0.00 | 0.00 | 0.00 | 84 | 1002.0 |
| 20260903083715 | 47 | 118 | 0.0 | 0.0 | 0.00 | 0.00 | 0.00 | 84 | 1002.4 |
| 20260903083209 | 47 | 116 | 0.0 | 0.0 | 0.00 | 0.00 | 0.00 | 83 | 1002.2 |
| 20260903082703 | 48 | 126 | 0.0 | 0.0 | 0.00 | 0.00 | 0.00 | 82 | 1002.7 |
| 20260903082159 | 48 | 144 | 2.0 | 2.0 | 0.00 | 0.00 | 0.00 | 83 | 1002.4 |
| 20260903081659 | 48 | 136 | 0.0 | 1.0 | 0.00 | 0.00 | 0.00 | 83 | 1002.4 |
| 20260903081155 | 48 | 141 | 2.0 | 2.0 | 0.00 | 0.00 | 0.00 | 82 | 1002.4 |
| 20260903080651 | 49 | 147 | 1.0 | 1.0 | 0.00 | 0.00 | 0.00 | 81 | 1002.3 |
| 20260903080149 | 49 | 145 | 1.0 | 1.0 | 0.00 | 0.00 | 0.00 | 80 | 1002.7 |
| 20260903075647 | 49 | 154 | 1.0 | 2.0 | 0.00 | 0.00 | 0.00 | 81 | 1002.2 |
| 20260903075143 | 49 | 148 | 1.0 | 1.0 | 0.00 | 0.00 | 0.00 | 79 | 1002.3 |
| 20260903074642 | 49 | 157 | 2.0 | 3.0 | 0.00 | 0.00 | 0.00 | 79 | 1002.4 |
| 20260903074137 | 49 | 158 | 3.0 | 3.0 | 0.00 | 0.00 | 0.00 | 79 | 1002.4 |
| 20260903073632 | 50 | 146 | 1.0 | 1.0 | 0.00 | 0.00 | 0.00 | 78 | 1002.4 |
| 20260903073128 | 49 | 156 | 2.0 | 2.0 | 0.00 | 0.00 | 0.00 | 80 | 1002.7 |
| 20260903072623 | 49 | 156 | 2.0 | 2.0 | 0.00 | 0.00 | 0.00 | 80 | 1002.5 |
| 20260903072119 | 49 | 160 | 5.0 | 5.0 | 0.00 | 0.00 | 0.00 | 80 | 1002.7 |
| 20260903071616 | 50 | 138 | 3.0 | 3.0 | 0.00 | 0.00 | 0.00 | 80 | 1002.5 |
| 20260903071111 | 51 | 164 | 6.0 | 7.0 | 0.00 | 0.00 | 0.00 | 77 | 1002.7 |
| 20260903070611 | 50 | 166 | 4.0 | 5.0 | 0.00 | 0.00 | 0.00 | 77 | 1002.7 |
| 20260903070107 | 51 | 155 | 3.0 | 3.0 | 0.00 | 0.00 | 0.00 | 79 | 1002.7 |
| 20260903065606 | 51 | 161 | 5.0 | 6.0 | 0.00 | 0.00 | 0.00 | 78 | 1002.4 |
| 20260903065100 | 51 | 163 | 3.0 | 3.0 | 0.00 | 0.00 | 0.00 | 77 | 1002.4 |
| 20260903064555 | 51 | 139 | 2.0 | 2.0 | 0.00 | 0.00 | 0.00 | 77 | 1002.5 |
| 20260903064050 | 51 | 126 | 2.0 | 2.0 | 0.00 | 0.00 | 0.00 | 78 | 1002.4 |
| 20260903063545 | 51 | 126 | 1.0 | 1.0 | 0.00 | 0.00 | 0.00 | 78 | 1002.3 |
| 20260903063041 | 50 | 96 | 4.0 | 5.0 | 0.00 | 0.00 | 0.00 | 80 | 1002.4 |
| 20260903062536 | 50 | 116 | 0.0 | 1.0 | 0.00 | 0.00 | 0.00 | 81 | 1002.4 |
| 20260903062032 | 50 | 100 | 2.0 | 2.0 | 0.00 | 0.00 | 0.00 | 80 | 1002.5 |
| 20260903061527 | 50 | 125 | 0.0 | 0.0 | 0.00 | 0.00 | 0.00 | 80 | 1002.4 |
| 20260903061027 | 50 | 149 | 1.0 | 2.0 | 0.00 | 0.00 | 0.00 | 80 | 1002.3 |
| 20260903060526 | 51 | 134 | 0.0 | 0.0 | 0.00 | 0.00 | 0.00 | 81 | 1002.3 |
| 20260903060021 | 51 | 302 | 3.0 | 5.0 | 0.00 | 0.06 | 0.06 | 80 | 1002.1 |
| 20260903055519 | 52 | 116 | 1.0 | 1.0 | 0.00 | 0.06 | 0.06 | 75 | 1002.2 |
| 20260903055018 | 53 | 139 | 1.0 | 1.0 | 0.00 | 0.06 | 0.06 | 74 | 1002.2 |
| 20260903054513 | 53 | 138 | 3.0 | 3.0 | 0.00 | 0.06 | 0.06 | 74 | 1002.2 |
| 20260903054009 | 52 | 161 | 6.0 | 8.0 | 0.00 | 0.06 | 0.06 | 77 | 1002.7 |
| 20260903053509 | 53 | 190 | 5.0 | 8.0 | 0.00 | 0.06 | 0.06 | 79 | 1002.3 |
| 20260903053005 | 53 | 165 | 6.0 | 7.0 | 0.00 | 0.06 | 0.06 | 77 | 1002.4 |
| 20260903052501 | 53 | 150 | 2.0 | 2.0 | 0.00 | 0.06 | 0.06 | 78 | 1002.3 |
| 20260903051956 | 53 | 144 | 1.0 | 1.0 | 0.00 | 0.06 | 0.06 | 79 | 1002.4 |
| 20260903051451 | 53 | 141 | 0.0 | 0.0 | 0.00 | 0.06 | 0.06 | 78 | 1002.3 |
| 20260903050947 | 52 | 147 | 0.0 | 1.0 | 0.00 | 0.06 | 0.06 | 80 | 1002.8 |
| 20260903050445 | 51 | 137 | 0.0 | 0.0 | 0.00 | 0.06 | 0.06 | 83 | 1003.3 |
| 20260903045940 | 51 | 139 | 0.0 | 0.0 | 0.00 | 0.06 | 0.06 | 83 | 1003.3 |
| 20260903045436 | 51 | 148 | 1.0 | 1.0 | 0.00 | 0.06 | 0.06 | 83 | 1003.3 |
| 20260903044932 | 51 | 204 | 2.0 | 2.0 | 0.00 | 0.06 | 0.06 | 84 | 1003.2 |
| 20260903044433 | 51 | 140 | 1.0 | 1.0 | 0.00 | 0.06 | 0.06 | 84 | 1003.2 |
| 20260903043929 | 51 | 149 | 1.0 | 1.0 | 0.00 | 0.06 | 0.06 | 84 | 1003.4 |
| 20260903043425 | 51 | 138 | 0.0 | 0.0 | 0.00 | 0.06 | 0.06 | 83 | 1003.2 |
| 20260903042923 | 52 | 142 | 1.0 | 1.0 | 0.00 | 0.06 | 0.06 | 82 | 1003.3 |
| 20260903042419 | 52 | 139 | 2.0 | 2.0 | 0.00 | 0.06 | 0.06 | 82 | 1003.2 |
| 20260903041914 | 52 | 153 | 3.0 | 3.0 | 0.00 | 0.06 | 0.06 | 82 | 1003.4 |
| 20260903041410 | 52 | 137 | 3.0 | 3.0 | 0.00 | 0.06 | 0.06 | 82 | 1003.5 |
| 20260903040906 | 51 | 151 | 1.0 | 2.0 | 0.00 | 0.06 | 0.06 | 82 | 1003.4 |
| 20260903040405 | 51 | 146 | 1.0 | 1.0 | 0.00 | 0.06 | 0.06 | 84 | 1003.1 |